Location: Newark
(25.0000°N, 73.5000°E)
Time: 00:34:45
(UTC+00:00)

STARLINK-2742 - Pass Details

Date: 16 June 2021
Orbit: 348 x 351 km, 53.0° (Epoch: 03 August)

Event Time Altitude Azimuth Distance (km) Brightness Sun altitude
Rises 09:52:20 0° 311° (NW) 2,146 7.1 52.4°
Reaches altitude 10° 09:54:26 10° 301° (WNW) 1,302 6.3 51.9°
Maximum altitude 09:57:07 34° 234° (SW) 587 4.9 51.3°
Drops below altitude 10° 09:59:47 10° 166° (SSE) 1,295 5.5 50.7°
Enters shadow 10:17:53 -38° 144° (SE) 8,312 9.1 46.6°
Exits shadow 10:53:29 -71° 346° (NNW) 12,450 10.2 38.7°
